User: anonymous   Login
Location: Valdosta
(30.8330°N, 83.2790°W)
Time: 03:16:57
(UTC-04:00)
Language:

Oscar 19 - Orbit

View from above orbital plane
View from above orbital plane
View from above satellite
View from above satellite

Ground track
Ground track

The orbit data is extracted from the following two-line orbital elements,

1 20442U 90005G   17233.85433878 -.00000010 +00000-0 +12286-4 0  9993
2 20442 098.5773 169.7095 0011018 318.7810 041.2541 14.32866875440969
Epoch (UTC): 21 August 2017 20:30:14
Eccentricity: 0.0011018
inclination: 98.5773°
perigee height: 774 km
apogee height: 790 km
right ascension of ascending node: 169.7095°
argument of perigee: 318.7810°
revolutions per day: 14.32866875
mean anomaly at epoch: 41.2541°
orbit number at epoch: 44096

The dashed part of the orbit path shows where the satellite is in the earth's shadow,  

DLR